Wind_Speed
31 31 29 27 25 25 26 28 29 27 26 23 23 24 23 23 25 23 3 9 5 1 5 3 3 2 2 2 2 3 3 4 4 4 3 1 2 0 3 1 1 3 3 1 1 0 3 1 3 2 5 3 4 6
31 29 27 24 23 24 26 28 27 26 24 22 23 22 21 21 22 20 4 8 11 4 5 5 13 13 4 4 4 2 4 2 3 4 1 2 2 2 2 1 2 2 4 3 6 5 4 4 4 5 4 5 6 5
28 26 25 23 23 25 27 27 25 25 23 23 23 22 20 20 19 18 11 11 4 2 4 4 2 2 4 12 8 3 2 3 2 2 4 2 2 3 2 3 1 1 3 2 2 3 4 6 4 5 6 7 9 11
26 25 22 22 24 26 26 26 26 24 22 23 23 22 21 20 18 17 9 6 3 1 1 5 7 2 3 5 9 4 6 4 5 3 3 2 2 3 3 2 3 3 3 2 4 5 7 4 5 5 9 10 12 15
24 23 22 23 25 26 26 27 25 24 23 24 23 23 22 20 17 14 4 1 5 1 2 4 17 2 7 6 9 7 8 4 2 2 2 2 2 3 1 2 2 0 2 2 4 5 5 8 8 9 11 15 16 16
23 22 24 25 26 27 27 25 24 24 25 26 25 25 21 17 12 3 2 3 5 5 2 3 5 4 7 4 8 4 3 3 2 3 2 2 2 3 3 2 3 3 3 6 5 4 6 15 15 14 12 15 16 15
22 23 25 26 26 26 25 24 24 25 27 27 27 21 20 11 5 2 2 3 5 10 2 4 5 3 3 3 3 2 3 2 2 2 1 2 1 3 3 2 4 6 7 7 7 4 8 8 9 14 16 21 24 24
23 25 25 25 25 24 23 23 24 27 28 28 21 16 7 3 2 3 7 7 2 1 2 1 4 3 5 2 1 2 2 2 4 1 2 2 2 2 2 4 5 6 8 8 8 6 11 15 16 16 19 16 16 15
24 23 23 23 22 22 21 22 25 28 29 20 13 4 2 3 3 3 8 6 2 1 1 0 0 1 4 2 0 2 2 2 2 1 0 3 2 2 4 4 6 7 5 11 13 12 12 11 14 15 14 17 17 17
21 21 20 20 20 18 18 21 26 28 22 13 5 2 2 3 12 6 1 2 2 2 2 2 0 2 2 2 2 2 3 1 1 2 1 3 0 3 4 5 6 8 8 7 7 10 11 14 14 15 16 17 16 16
19 18 19 18 16 16 18 21 24 26 11 8 8 2 7 9 2 3 2 1 2 2 2 3 4 1 2 2 1 1 1 1 2 3 3 1 0 2 3 6 6 7 8 7 7 10 11 11 13 14 15 15 17 20
17 17 16 14 15 17 18 19 20 17 14 11 10 8 5 3 2 3 3 2 2 2 2 2 2 3 2 2 2 1 2 2 3 2 2 3 3 4 4 6 8 9 10 8 12 10 14 14 15 14 13 14 18 21
14 13 12 13 14 15 17 17 16 17 15 2 1 2 2 1 4 1 2 1 2 2 2 1 0 1 2 3 3 2 2 4 1 1 2 2 2 3 5 5 7 12 11 9 10 14 14 14 17 17 17 22 22 21
12 12 11 10 12 16 17 18 18 17 4 2 3 5 1 1 2 2 3 3 3 2 1 0 2 2 1 2 1 1 2 1 1 1 1 2 4 5 6 4 3 8 8 7 9 13 12 13 15 20 20 21 20 19
11 12 11 9 14 17 21 19 14 6 2 1 2 2 2 3 4 4 3 2 2 1 2 2 3 2 2 2 1 2 0 1 1 2 2 4 3 5 6 5 6 6 7 5 11 11 13 14 14 15 21 21 22 21
12 10 4 12 16 21 22 14 4 2 1 0 1 2 3 2 4 4 4 3 3 2 1 3 2 3 2 1 0 2 1 2 3 3 3 2 3 5 5 6 6 10 11 7 10 14 14 12 11 12 19 24 24 23
10 3 10 15 22 22 13 4 2 1 1 2 2 2 2 3 4 3 2 2 2 2 2 1 0 3 1 1 1 3 3 3 3 3 2 3 5 5 6 9 11 12 9 7 9 14 14 11 8 12 10 21 24 26
4 8 13 18 20 16 4 2 1 1 3 2 1 3 2 3 3 4 3 1 2 3 1 1 2 0 2 2 2 3 3 3 3 3 3 5 6 9 9 9 12 9 6 10 11 13 11 10 7 6 11 16 22 27
10 13 13 13 15 6 4 2 0 1 3 2 3 3 2 4 4 7 3 3 0 0 4 2 1 3 3 3 3 3 3 3 3 3 3 8 9 9 10 10 9 3 7 17 22 16 14 13 10 8 8 12 15 22
10 8 9 12 9 2 3 3 1 2 3 3 2 3 3 3 3 4 3 1 2 2 2 3 4 3 4 3 4 4 3 3 3 2 4 4 6 5 6 7 7 12 16 17 16 18 8 4 5 9 7 9 14 18
6 5 10 7 2 2 2 2 3 3 3 2 3 3 4 3 3 2 2 1 1 2 2 3 3 3 6 12 15 11 7 6 4 4 3 3 6 7 4 5 10 14 11 14 11 13 5 3 4 4 4 6 11 14
4 9 4 3 2 2 2 4 2 4 1 3 4 1 3 3 3 2 1 1 1 1 2 2 2 2 3 4 4 6 8 10 8 7 7 6 3 3 6 11 12 11 13 14 12 7 3 4 5 6 8 11 12 15
7 4 2 1 2 1 5 1 1 2 1 3 3 3 3 2 2 0 2 1 2 2 2 1 3 5 5 9 5 5 5 5 5 2 4 3 3 2 8 15 16 16 16 17 8 5 4 9 11 12 13 11 11 13
4 2 2 1 1 3 2 2 2 2 2 2 1 3 3 2 3 3 1 2 3 5 2 1 6 3 3 4 3 5 10 7 1 1 1 1 1 3 10 19 22 17 11 8 2 9 9 10 9 11 11 11 11 12
3 1 2 3 2 2 2 2 2 2 2 2 2 4 3 3 2 2 1 3 3 2 2 4 4 4 2 3 6 8 8 9 8 3 3 6 6 7 10 13 7 14 11 13 9 10 9 8 7 10 13 11 11 11
2 2 5 2 2 2 2 2 2 2 2 2 3 2 2 2 1 1 1 2 2 2 3 1 2 4 3 9 5 11 16 15 11 4 6 12 8 6 6 4 5 12 12 8 5 5 6 7 10 12 11 10 10 10
3 3 3 4 2 3 3 3 3 2 3 3 2 3 2 2 1 1 0 2 2 5 6 1 4 6 9 14 16 12 10 3 4 3 5 4 5 8 10 8 5 6 7 9 8 6 8 8 10 13 11 9 8 8
3 2 4 2 2 3 2 2 3 3 3 0 1 2 2 2 2 2 2 2 14 14 7 5 11 14 16 14 10 8 4 3 4 5 9 9 8 7 5 3 5 2 3 5 5 4 10 13 15 14 14 12 10 8
3 2 2 3 3 3 4 4 3 3 2 3 3 2 3 3 3 3 6 11 16 20 16 13 11 8 14 11 2 3 3 3 5 6 6 4 6 11 12 11 7 3 6 7 8 12 14 15 13 13 12 11 11 11
4 4 3 3 3 4 4 5 4 3 3 3 3 2 3 4 16 19 20 24 19 14 19 17 18 16 16 12 2 6 6 6 6 4 1 3 7 4 4 8 10 11 10 11 16 15 14 14 12 10 10 11 11 10
2 3 2 3 3 3 4 3 2 2 1 2 2 3 4 3 8 16 20 23 24 17 13 14 13 9 10 2 6 4 5 6 3 4 5 7 5 4 10 13 14 14 14 14 13 13 13 12 9 8 9 8 9 10
4 6 4 3 3 3 0 0 1 1 1 1 2 2 2 1 3 3 3 6 12 12 13 10 5 4 1 4 2 5 7 6 7 6 6 7 7 11 12 12 12 11 11 11 11 9 8 8 7 7 5 5 7 8
3 3 4 3 2 2 2 1 1 2 2 2 2 2 2 2 3 3 7 2 4 6 6 4 8 6 7 7 8 9 10 11 12 11 10 10 11 9 10 8 7 6 6 5 4 4 3 1 2 3 5 6 7 7
Wind_Direction
331 330 330 330 331 334 337 339 341 343 344 346 348 352 354 356 358 0 327 15 17 245 278 220 272 175 90 80 130 277 35 348 38 63 102 188 100 70 75 292 100 112 98 13 68 291 291 311 340 36 230 277 262 275
331 333 332 332 333 334 336 338 340 341 341 343 344 347 350 352 353 357 328 332 324 194 253 272 266 263 228 191 140 9 164 174 177 92 78 110 86 61 141 214 343 27 169 197 167 225 238 236 190 243 197 245 275 256
332 333 332 332 333 334 335 337 339 337 338 340 341 343 344 345 347 348 326 333 333 357 297 340 297 301 250 218 224 112 293 169 104 164 148 139 111 129 138 241 214 272 148 181 43 272 264 260 234 233 215 237 265 267
331 332 332 332 331 333 335 336 336 335 335 337 338 338 338 336 336 334 324 325 356 76 44 286 337 323 204 254 213 218 142 97 100 66 90 115 142 168 198 197 169 215 120 189 265 284 305 307 215 246 288 281 278 278
329 331 331 331 331 333 334 333 334 334 333 335 335 334 331 326 327 326 292 60 10 86 248 285 314 322 333 187 169 149 122 103 88 64 78 213 154 115 19 65 291 297 188 160 242 240 222 255 261 263 274 282 280 277
328 330 330 329 329 329 329 332 333 333 333 332 332 330 324 319 325 324 5 196 58 16 67 340 316 312 351 112 142 108 101 88 95 135 198 231 247 108 128 182 275 258 227 202 254 249 237 275 280 277 275 273 277 278
327 328 328 328 328 328 330 332 333 333 333 332 330 327 323 310 312 171 170 335 276 340 56 324 337 303 346 85 50 55 52 87 113 127 178 157 72 83 89 148 250 269 274 281 263 274 283 266 278 298 291 288 288 282
324 325 326 328 331 330 332 333 334 334 333 332 330 333 350 40 61 81 18 3 3 134 74 350 279 3 20 38 77 353 69 33 21 152 45 113 38 63 77 256 273 277 290 285 279 248 262 284 289 286 292 294 300 301
324 325 327 330 329 330 335 336 335 336 335 335 332 343 4 30 26 344 328 322 321 141 179 95 225 209 359 9 7 33 55 55 318 83 324 84 351 85 204 240 281 288 288 290 302 298 291 284 293 302 306 312 308 306
327 330 332 330 330 336 337 338 338 340 339 340 354 31 10 352 320 317 53 359 15 348 55 223 60 278 72 4 24 41 23 68 68 266 80 66 241 256 250 246 269 288 289 296 306 318 315 312 311 311 312 311 306 303
325 331 329 328 337 338 339 341 342 349 357 9 5 353 312 330 346 23 342 26 329 295 179 238 195 275 346 76 188 41 148 18 57 261 119 69 303 246 267 299 301 298 299 292 256 264 281 284 299 311 311 317 317 321
326 327 330 337 337 339 338 339 343 355 347 314 295 305 317 347 29 13 313 308 236 265 215 203 246 197 305 84 95 11 104 42 245 261 186 125 231 237 284 301 313 317 314 312 317 308 316 315 322 319 319 321 325 324
325 330 335 338 343 351 348 346 345 337 335 327 293 301 42 305 38 274 324 322 279 225 249 250 297 85 19 51 71 76 73 240 13 61 112 181 244 288 286 305 312 315 317 313 324 330 325 334 342 336 331 336 334 333
324 328 332 336 340 344 345 339 334 335 325 34 16 339 108 284 254 241 241 257 273 306 336 266 75 80 349 59 105 90 250 52 277 130 110 238 244 267 291 283 299 315 320 318 320 326 328 345 340 341 345 341 341 338
320 322 322 329 335 336 335 330 326 333 355 24 31 278 249 293 266 273 275 259 297 265 67 31 35 51 9 96 23 68 245 258 20 157 227 233 250 273 281 301 314 318 314 319 327 333 331 342 348 342 0 355 357 351
322 322 325 333 331 332 331 328 322 338 3 13 228 314 301 340 324 341 3 339 333 9 31 51 31 25 337 99 165 236 301 219 221 221 234 280 272 273 279 302 302 304 295 312 346 337 331 334 348 341 12 12 7 5
319 291 325 331 329 331 328 319 319 326 268 276 275 230 229 254 246 281 316 271 15 36 33 19 234 236 74 59 262 178 205 219 229 256 247 238 261 279 308 306 305 309 303 331 339 336 328 317 339 9 358 1 13 14
286 320 328 331 336 339 327 323 341 353 280 252 239 273 232 232 273 293 262 295 72 140 179 259 128 318 225 212 265 251 247 262 246 255 267 274 270 285 301 290 306 312 333 333 337 321 326 317 303 341 346 356 12 13
305 319 331 339 338 327 350 312 144 301 260 272 273 259 251 267 248 248 256 291 3 221 116 58 232 207 229 215 230 247 236 218 242 263 262 279 276 285 303 313 314 313 348 348 330 318 306 293 262 279 325 346 356 10
313 324 331 332 332 316 326 294 272 246 279 268 289 283 248 245 283 286 291 240 133 113 81 204 220 224 211 224 211 227 229 209 187 280 292 293 299 297 311 330 333 349 350 331 312 309 301 276 250 254 296 330 356 359
325 338 333 339 313 295 227 304 306 218 291 293 281 320 287 321 293 300 304 142 96 201 233 228 246 262 277 278 278 267 234 199 224 212 240 284 317 305 338 343 354 338 321 310 304 308 267 268 327 327 350 18 16 23
320 328 312 332 305 293 257 233 219 282 293 262 316 336 288 302 294 265 214 73 233 278 214 229 275 283 301 307 293 263 269 291 267 268 275 283 306 353 353 340 328 316 309 305 304 281 57 14 43 72 93 81 61 58
324 321 305 297 333 33 267 227 292 232 275 281 332 321 278 281 244 359 63 3 291 277 294 314 328 333 319 345 37 32 350 307 285 280 267 265 301 299 267 289 305 306 306 303 304 208 103 99 98 100 115 98 69 50
318 320 323 303 208 274 310 280 234 273 274 271 268 281 292 274 328 41 51 310 277 318 316 5 29 5 355 10 20 22 17 24 77 98 80 192 63 259 252 287 305 315 298 273 158 142 127 133 117 119 111 99 78 62
354 309 82 293 248 270 261 275 260 274 272 311 316 292 288 356 4 9 93 306 319 298 299 14 45 30 13 304 307 340 9 355 337 310 344 142 155 268 300 332 7 34 78 103 106 102 92 94 108 111 114 102 90 75
256 217 166 249 224 196 258 280 320 327 294 275 256 280 30 33 314 102 249 275 294 295 326 356 107 50 321 299 298 322 329 340 329 340 85 152 174 272 306 338 342 29 52 63 71 110 126 103 101 123 114 102 106 85
265 248 237 234 267 283 277 265 253 244 256 250 281 327 324 279 127 254 343 12 300 317 345 181 183 179 242 278 316 332 336 24 69 95 141 173 246 276 274 302 330 8 40 43 45 58 126 117 119 130 110 106 83 81
250 275 200 282 278 232 252 255 253 238 244 220 66 281 268 282 232 240 190 3 10 5 344 302 247 259 276 312 349 356 355 99 177 286 295 289 308 292 263 184 143 124 71 61 41 60 134 121 116 111 102 89 74 64
251 248 160 267 253 254 228 215 239 247 229 164 176 235 254 221 213 223 279 312 320 318 329 344 357 295 313 336 16 39 167 142 21 33 25 11 4 44 117 135 145 122 93 79 86 109 115 110 102 102 95 83 68 58
253 171 201 242 214 232 233 193 212 219 227 224 204 247 282 277 261 263 275 285 286 281 288 302 317 328 317 325 155 82 83 157 201 181 136 46 336 338 164 134 119 117 107 106 116 110 107 100 94 87 77 66 53 42
186 167 240 226 250 247 242 250 263 267 257 261 258 233 261 293 291 271 257 256 258 263 263 272 289 309 322 151 148 119 69 63 122 162 177 189 262 154 137 127 125 125 122 120 114 101 91 79 70 71 74 63 37 29
190 204 192 222 252 253 60 223 317 299 290 284 268 224 281 329 279 282 291 238 218 227 241 255 267 274 286 173 131 112 111 109 108 118 145 149 148 138 138 134 132 129 124 122 124 122 113 102 89 82 73 31 16 12
219 191 198 249 275 261 220 150 282 297 232 265 256 219 226 233 277 294 13 60 204 221 227 189 152 133 118 104 99 101 98 93 90 89 99 120 130 131 137 137 143 143 142 142 145 152 149 118 43 22 2 353 356 356
Height
871 866 861 857 853 849 845 841 836 832 827 823 819 816 812 808 803 800 797 796 796 796 786 780 777 777 781 786 789 785 785 782 789 800 804 808 807 808 806 805 804 814 821 823 825 817 815 793 792 798 799 792 791 790
868 863 859 855 851 847 843 839 835 830 826 822 819 815 812 808 804 801 798 796 794 794 785 778 775 774 774 776 783 787 786 788 789 801 806 809 806 813 818 816 802 813 810 815 816 814 798 793 792 790 791 791 788 787
865 861 856 852 849 845 841 837 833 829 825 821 817 814 811 808 805 802 798 795 793 793 783 778 771 771 770 771 774 784 785 782 785 786 799 806 804 812 814 814 802 799 804 807 804 796 793 790 790 788 786 787 782 779
863 858 854 850 847 843 839 835 830 826 822 819 815 812 809 806 803 801 799 796 795 795 794 778 770 769 770 770 772 773 774 778 781 786 796 804 805 803 811 805 807 804 802 806 807 798 793 786 785 783 781 779 776 772
860 856 852 848 844 840 836 832 828 824 820 816 812 809 806 803 800 798 796 796 795 798 797 786 772 769 768 768 770 772 774 779 785 791 797 800 802 803 810 808 808 806 805 808 808 796 796 789 782 779 778 773 767 764
857 853 850 846 842 837 833 829 825 821 817 813 808 805 802 799 797 796 797 797 796 795 797 794 777 771 768 769 771 773 775 780 784 788 793 795 792 797 807 812 806 803 801 800 797 789 789 781 776 772 771 765 760 756
855 851 847 843 838 834 830 826 822 818 814 809 804 800 797 795 795 796 798 797 795 795 796 795 788 773 771 771 774 776 778 781 784 790 792 793 793 797 808 809 802 799 796 793 789 789 784 776 772 765 762 756 752 747
852 848 844 840 836 832 827 823 819 815 810 805 800 797 795 794 795 796 796 795 794 796 796 798 789 779 772 779 781 780 783 785 788 790 793 794 798 802 808 802 800 796 793 788 784 783 779 772 767 761 756 751 744 737
849 845 841 837 834 830 826 822 817 812 806 801 798 796 796 796 796 797 796 796 795 798 798 798 794 788 775 782 782 783 785 790 793 794 795 797 807 806 801 800 798 795 794 789 782 778 773 769 762 755 751 744 740 731
846 842 839 836 832 828 825 821 816 810 803 800 798 796 798 799 797 797 795 796 795 796 798 797 795 788 783 786 787 788 792 798 795 796 796 801 805 800 797 796 796 793 790 787 783 775 769 765 759 753 748 742 735 727
843 840 837 834 831 828 824 820 816 809 805 803 803 802 799 797 796 796 797 797 797 794 795 791 791 789 783 786 789 794 796 800 799 798 797 807 806 797 794 794 791 788 785 782 780 775 770 766 758 752 744 738 731 724
841 838 835 833 830 827 824 821 817 813 813 812 810 806 802 799 799 801 798 796 795 789 788 786 784 787 785 785 788 795 794 800 797 792 789 798 798 793 794 791 788 785 781 778 775 771 766 762 757 752 745 737 730 724
839 836 834 832 829 827 824 821 818 815 811 809 809 807 805 802 806 802 795 791 790 786 784 783 785 786 786 788 794 794 793 799 795 796 793 796 792 792 791 789 786 782 779 776 772 767 764 759 755 751 744 738 731 724
837 835 833 831 829 826 824 820 817 814 812 812 810 817 806 802 799 796 794 791 786 784 783 784 785 787 792 789 797 789 795 797 794 792 795 795 793 790 789 786 785 781 777 774 771 767 763 759 755 751 745 739 733 726
836 834 832 830 828 825 822 818 815 813 813 813 813 821 806 800 797 791 788 787 784 784 784 785 788 792 793 790 797 796 792 794 794 795 795 792 789 788 786 783 781 779 776 773 770 766 763 760 756 752 747 742 736 729
834 832 831 829 826 823 819 816 814 813 813 814 813 809 807 803 796 791 789 788 786 785 785 788 794 794 795 799 792 791 796 795 795 793 789 788 787 784 783 780 779 776 774 772 768 766 764 761 757 754 749 744 738 733
833 832 831 828 824 820 817 816 814 813 813 811 812 810 810 808 804 798 795 789 789 790 796 799 792 790 799 797 795 798 797 794 790 788 787 786 784 782 780 777 775 774 771 769 767 765 763 760 757 754 750 745 741 736
832 832 830 827 823 818 817 816 815 815 811 811 811 808 806 804 801 798 792 790 790 794 797 794 797 794 795 796 798 795 792 790 788 787 785 782 780 779 778 775 773 772 769 767 765 764 763 760 757 755 752 748 744 738
832 830 828 826 823 822 820 817 817 817 813 811 808 806 804 800 795 792 790 789 790 790 791 796 796 798 796 794 790 789 788 788 785 783 781 778 777 776 774 772 771 770 769 763 760 759 758 757 757 754 752 750 746 742
830 829 827 825 824 823 822 820 817 816 814 809 808 805 802 799 793 790 789 789 789 791 794 795 792 789 787 783 784 782 782 781 782 781 780 776 774 773 772 770 768 765 764 763 761 757 754 753 753 753 752 751 749 745
830 829 826 825 824 824 824 821 819 817 813 812 806 805 800 796 794 791 790 787 788 789 790 789 787 784 781 780 780 778 777 778 779 778 776 775 772 772 770 768 767 765 765 762 760 755 753 752 752 752 752 753 751 748
830 828 826 825 825 824 823 819 819 815 815 809 807 804 802 796 791 790 790 790 788 788 788 787 785 784 781 779 777 777 776 776 774 774 774 773 772 770 768 767 766 764 763 760 758 755 753 752 751 751 752 753 752 750
830 829 828 827 827 826 823 817 818 811 812 807 805 803 796 793 788 788 789 792 790 787 786 785 783 781 781 778 776 775 774 773 773 773 772 771 771 770 769 768 767 765 760 757 755 755 755 754 754 754 755 755 754 753
830 829 829 827 827 825 818 816 813 810 806 804 806 798 793 790 789 791 789 794 791 788 786 784 784 783 780 778 777 776 775 774 773 772 771 770 769 770 769 767 764 761 758 756 755 755 756 757 758 757 757 757 757 756
834 831 832 834 825 824 818 813 809 807 804 800 802 801 796 796 795 795 792 794 791 789 786 785 784 784 784 782 778 776 776 774 771 770 769 767 770 770 770 767 764 761 759 758 759 759 759 759 760 761 761 761 761 761
833 828 832 821 818 821 815 810 806 806 805 802 798 794 799 798 794 792 795 794 791 789 787 787 786 785 785 782 780 777 775 773 770 766 768 769 771 772 772 771 768 765 764 763 762 762 762 762 762 763 764 765 765 764
833 822 824 822 819 816 813 809 808 808 804 800 797 795 794 794 790 794 792 792 791 788 787 786 785 784 781 778 778 775 772 771 770 768 770 772 772 772 772 772 770 769 767 766 765 763 763 762 763 765 766 767 767 766
826 822 825 821 819 814 811 808 806 802 798 798 800 799 795 794 793 792 790 790 789 787 786 784 782 781 780 780 778 775 773 773 774 774 772 771 770 769 769 770 770 770 770 769 768 767 767 767 768 769 769 769 769 769
826 823 823 821 816 811 807 807 804 801 796 797 799 799 795 792 789 788 787 787 787 787 786 784 782 782 781 779 778 776 774 772 772 772 771 771 769 770 770 770 771 771 771 770 770 771 772 772 772 773 773 773 773 772
821 819 820 816 813 807 800 797 795 792 792 791 791 790 789 786 783 783 784 784 783 784 783 782 781 780 778 778 777 777 776 775 775 775 775 775 773 773 772 772 772 772 773 773 774 775 776 776 776 776 776 775 775 774
814 816 814 811 805 797 793 792 791 791 791 790 789 789 786 783 778 775 775 775 776 779 781 781 781 780 778 777 777 777 777 776 776 776 775 775 775 775 775 775 776 777 778 778 778 779 779 779 779 778 778 778 777 775
809 807 805 803 796 791 791 792 792 792 791 791 787 786 784 785 783 774 770 770 772 774 776 778 779 779 778 778 777 777 778 778 778 777 777 777 777 779 780 780 781 781 781 781 782 782 782 782 781 781 780 779 778 777
799 796 797 796 794 790 790 791 790 790 789 788 784 783 781 781 778 773 772 771 772 773 774 776 778 779 779 780 780 781 781 781 781 781 781 781 782 783 784 784 783 783 783 783 783 783 783 783 782 782 781 779 778 777